Location: Musselshell
(46.5176°N, 108.0911°W)
Time: 11:47:46
(UTC+00:00)

EO-88 - Pass Details

Date: 29 June 2022
Orbit: 453 x 461 km, 97.3° (Epoch: 13 August)

Event Time Altitude Azimuth Distance (km) Brightness Sun altitude
Exits shadow 04:13:20 12° 146° (SE) 1,489 ? -9.0°
Maximum altitude 04:16:23 48° 73° (ENE) 625 ? -9.3°
Drops below altitude 10° 04:19:46 10° 359° (N) 1,638 ? -9.7°
Sets 04:21:52 0° 353° (N) 2,518 ? -9.9°
